This is the latest recevied weather packets stored in our database for station/object W7TJC. If no packets are shown the sender has not sent any weather packets the latest 1 day(s).
| Time | Temp. | Humidity | Pressure | Rain* | Wind** | Luminosity | Snow |
|---|---|---|---|---|---|---|---|
| 1778004638 | 13.89° C | 82% | 1017.5 hPa | 0 mm | 0.89 m/s, 224° | 51 W/m² | - |
| 1778004333 | 13.89° C | 82% | 1017.5 hPa | 0 mm | 0 m/s | 54 W/m² | - |
| 1778004032 | 13.89° C | 81% | 1017.5 hPa | 0 mm | 0 m/s | 56 W/m² | - |
| 1778003732 | 13.33° C | 83% | 1017.7 hPa | 0 mm | 0 m/s | 54 W/m² | - |
| 1778003429 | 13.33° C | 82% | 1017.7 hPa | 0 mm | 0 m/s | 53 W/m² | - |
| 1778003126 | 13.33° C | 83% | 1017.3 hPa | 0 mm | 0 m/s | 47 W/m² | - |
| 1778002822 | 13.33° C | 83% | 1017.7 hPa | 0 mm | 0 m/s | 40 W/m² | - |
| 1778002519 | 13.33° C | 83% | 1017.6 hPa | 0 mm | 0.45 m/s, 191° | 40 W/m² | - |
| 1778002216 | 13.33° C | 82% | 1017.5 hPa | 0 mm | 0 m/s | 38 W/m² | - |
| 1778001914 | 13.33° C | 82% | 1017.5 hPa | 0 mm | 0.45 m/s, 146° | 38 W/m² | - |
| 1778001609 | 13.33° C | 83% | 1017.4 hPa | 0 mm | 0.89 m/s, 220° | 40 W/m² | - |
| 1778001305 | 13.33° C | 82% | 1017.3 hPa | 0 mm | 0 m/s | 41 W/m² | - |
| 1778001002 | 13.33° C | 83% | 1017.5 hPa | 0 mm | 0 m/s | 44 W/m² | - |
| 1778000698 | 12.78° C | 83% | 1017.4 hPa | 0 mm | 0.45 m/s, 186° | 50 W/m² | - |
| 1778000394 | 12.78° C | 83% | 1017.4 hPa | 0 mm | 0 m/s | 39 W/m² | - |
| 1778000090 | 12.78° C | 83% | 1017.2 hPa | 0 mm | 0 m/s | 35 W/m² | - |
| 1777999786 | 12.78° C | 83% | 1017.1 hPa | 0 mm | 0 m/s | 33 W/m² | - |
| 1777999482 | 12.78° C | 83% | 1017.2 hPa | 0 mm | 0 m/s | 33 W/m² | - |
| 1777999180 | 12.78° C | 83% | 1017.3 hPa | 0 mm | 0 m/s | 32 W/m² | - |
| 1777998879 | 12.78° C | 83% | 1017.1 hPa | 0 mm | 0.45 m/s, 149° | 31 W/m² | - |
| 1777998578 | 12.78° C | 83% | 1017.4 hPa | 0 mm | 0.45 m/s, 205° | 32 W/m² | - |
| 1777998273 | 12.78° C | 83% | 1017.3 hPa | 0 mm | 0.45 m/s, 160° | 35 W/m² | - |
| 1777997970 | 12.78° C | 82% | 1017.2 hPa | 0 mm | 0.89 m/s, 210° | 34 W/m² | - |
| 1777997666 | 12.78° C | 83% | 1017.1 hPa | 0 mm | 0 m/s | 36 W/m² | - |
| 1777997364 | 12.78° C | 83% | 1017.1 hPa | 0 mm | 0.45 m/s, 201° | 38 W/m² | - |
* Rain latest hour (hover to see other rain measurements)
** Current wind speed in m/s (hover to see current wind gust speed)